[[{"header":{"parameterUnit":"m.s-1","parameterCategory":1,"la1":30.2991,"la2":30.254,"lo1":-89.0895,"lo2":-89.0444,"dy":0.0017,"dx":0.0017,"nx":28,"ny":28,"refTime":"2025-02-02T09:00:00:Z","depth":0,"parameterNumber":2,"parameterNumberName":"U-component_of_WINDS"},"data":[0,0,0,0,0,0,0,0,0,0,0,0,0,0,0,0,0,0,0,0,0,0,0,0,0,0,0,0,0,0,0,0,0,0,0,0,0,0,0,0,0,0,0,0,0,0,0,0,0,0,0,0,0,0,0,0,0,0,0.4273,0.4273,0,0.433,0.4331,0.4332,0.4348,0.4348,0.4348,0.4348,0.4407,0.4408,0.441,0,0,0,0,0,0,0,0,0,0,0,0,0,0.4176,0.4177,0.4272,0.4273,0.4274,0.433,0.4331,0.4332,0.4349,0.4348,0.4348,0.4347,0.4406,0.4408,0.441,0,0,0,0,0,0,0,0,0,0,0,0,0,0.4224,0.4178,0.4272,0.4289,0.4291,0.433,0.4331,0.4332,0.4349,0.4348,0.4348,0.4347,0.4405,0.4408,0.4411,0.4437,0,0,0.4419,0.442,0,0,0,0,0,0,0,0,0.4221,0.4228,0.4286,0.4288,0.429,0.4332,0.4319,0.4367,0.4349,0.4327,0.4348,0.4347,0.4382,0.4387,0.4399,0.444,0.4442,0.4419,0.4421,0.4422,0.4423,0,0,0,0,0,0,0,0.4218,0.4225,0.4295,0.4287,0.4289,0.4293,0.43,0.4328,0.4356,0.4329,0.433,0.4337,0.4383,0.4396,0.44,0.4443,0.4419,0.4422,0.4424,0.4425,0.4508,0.4509,0,0,0,0,0,0,0.4212,0.4222,0.4294,0.4297,0.4254,0.4295,0.4303,0.4319,0.4356,0.4361,0.4337,0.4337,0.4391,0.4397,0.4402,0.4435,0.4422,0.4425,0.4426,0.4508,0.4508,0.4509,0,0,0,0,0,0,0.421,0.4218,0.4291,0.426,0.427,0.4298,0.4316,0.432,0.4333,0.4362,0.4367,0.4345,0.4391,0.4398,0.4428,0.4437,0.4426,0.4429,0.4507,0.4508,0.4509,0.4501,0,0,0,0,0,0,0.4207,0.4217,0.4228,0.426,0.4271,0.4316,0.4316,0.4322,0.4338,0.4339,0.4371,0.4376,0.4391,0.4424,0.4431,0.4441,0.4431,0.4506,0.4508,0.4508,0.4501,0.4501,0.4502,0,0,0,0,0,0.4203,0.4223,0.4228,0.4237,0.4285,0.4317,0.4323,0.4341,0.4338,0.4349,0.4368,0.4375,0.4435,0.4427,0.4435,0.4446,0.4506,0.4507,0.4508,0.45,0.4501,0.4502,0,0,0,0,0,0,0.4191,0.4228,0.4234,0.4265,0.4288,0.432,0.4334,0.4341,0.4365,0.4365,0.4386,0.4393,0.4421,0.4437,0.4426,0.4473,0.4471,0.4474,0.4462,0.4463,0.4464,0.4459,0.4433,0,0,0,0,0,0.4192,0.4215,0.4246,0.427,0.4281,0.4305,0.432,0.4331,0.4356,0.4365,0.4386,0.441,0.4434,0.4449,0.4473,0.4503,0.451,0.4514,0.4515,0.4516,0.4518,0.4534,0.4536,0.4513,0.4513,0.4513,0,0,0.4194,0.4217,0.423,0.4268,0.4287,0.431,0.4313,0.4338,0.4355,0.4369,0.4398,0.4415,0.4442,0.4472,0.4486,0.4485,0.4526,0.4517,0.4518,0.452,0.4536,0.4538,0.454,0.4514,0.4514,0.4514,0,0,0.4209,0.4229,0.4252,0.4271,0.4299,0.4315,0.432,0.4351,0.4363,0.4392,0.4403,0.4424,0.4465,0.4484,0.4499,0.4521,0.4528,0.4528,0.4533,0.4548,0.455,0.4552,0.4559,0.4561,0.453,0.453,0.453,0,0.4208,0.4244,0.4262,0.4286,0.4302,0.4316,0.4338,0.4356,0.4391,0.4401,0.4401,0.4452,0.4472,0.4506,0.4511,0.4523,0.4529,0.4525,0.4548,0.455,0.4552,0.4559,0.4562,0.453,0.453,0.453,0.453,0,0.4241,0.4265,0.4279,0.4313,0.433,0.4353,0.4375,0.4391,0.44,0.4416,0.4446,0.447,0.4498,0.4507,0.4517,0.4543,0.4541,0.4544,0.4542,0.4554,0.4561,0.4564,0.453,0.453,0.453,0.453,0,0,0.425,0.4293,0.4298,0.4313,0.4345,0.4364,0.4387,0.4416,0.4428,0.4452,0.4472,0.4506,0.4509,0.4526,0.4538,0.4552,0.4567,0.4553,0.4554,0.4554,0.4595,0.4593,0.4596,0.4572,0.4572,0.4573,0.4593,0,0.4269,0.4311,0.4328,0.4362,0.4385,0.4398,0.4418,0.444,0.4455,0.4476,0.4493,0.4517,0.4519,0.4529,0.4543,0.4562,0.4575,0.4561,0.459,0.4591,0.4582,0.4599,0.4597,0.4615,0.4596,0.4596,0.4597,0,0.4297,0.432,0.4357,0.4386,0.4396,0.4414,0.4441,0.4461,0.4486,0.4496,0.4514,0.4526,0.455,0.4547,0.4581,0.457,0.4583,0.4594,0.4595,0.4598,0.4594,0.4602,0.4621,0.4623,0.4601,0.4601,0.4601,0,0.4299,0.434,0.4367,0.438,0.4415,0.4427,0.4442,0.4466,0.4482,0.4505,0.4515,0.4541,0.4555,0.4575,0.4593,0.4589,0.4625,0.4623,0.4634,0.4633,0.464,0.464,0.466,0.4649,0.4649,0.4649,0.4649,0,0.4318,0.434,0.4368,0.4385,0.4409,0.4428,0.4452,0.4468,0.449,0.4509,0.4523,0.4541,0.4563,0.4584,0.4598,0.4624,0.463,0.4639,0.4642,0.4637,0.4636,0.4646,0.4645,0.465,0.465,0.465,0.465,0,0.4325,0.4345,0.4375,0.4406,0.4414,0.443,0.4456,0.4473,0.4489,0.4513,0.452,0.4545,0.457,0.459,0.4623,0.4632,0.4659,0.4663,0.465,0.4652,0.4661,0.466,0.4689,0.4693,0.4679,0.4679,0.4679,0,0.4336,0.4353,0.4385,0.4399,0.4414,0.4436,0.4452,0.4472,0.4488,0.4517,0.453,0.4556,0.4578,0.4617,0.4638,0.4663,0.4668,0.4676,0.4671,0.4666,0.4667,0.4666,0.4667,0.4676,0.4676,0.4676,0.4677,0,0.4352,0.4361,0.4384,0.441,0.4428,0.445,0.4471,0.4482,0.4505,0.4522,0.4548,0.4565,0.4598,0.4624,0.4651,0.4667,0.4675,0.4678,0.4681,0.4676,0.4668,0.4672,0.4651,0.4677,0.4677,0.4677,0.4677,0.4677,0.4361,0.4376,0.4401,0.4426,0.4444,0.4464,0.448,0.4498,0.452,0.4549,0.4559,0.4585,0.461,0.4647,0.4662,0.4683,0.4684,0.4689,0.469,0.4691,0.4691,0.4665,0.4688,0.4688,0.4688,0.4688,0.4688,0,0.4378,0.4395,0.4417,0.4447,0.4466,0.4472,0.4496,0.4512,0.4535,0.4557,0.4578,0.4607,0.4632,0.4655,0.468,0.4693,0.4697,0.4699,0.4698,0.4701,0.4689,0.4683,0.4695,0.4695,0.4695,0.4695,0.4695,0.4695,0.4389,0.4415,0.4427,0.4462,0.4479,0.4505,0.4518,0.4536,0.4553,0.4585,0.4606,0.4621,0.4643,0.467,0.4693,0.4699,0.4708,0.4708,0.4715,0.4703,0.4702,0.4701,0.4696,0.471,0.471,0.4726,0.4726,0.4726]},{"header":{"parameterUnit":"m.s-1","parameterCategory":1,"la1":30.2991,"la2":30.254,"lo1":-89.0895,"lo2":-89.0444,"dy":0.0017,"dx":0.0017,"nx":28,"ny":28,"refTime":"2025-02-02T09:00:00:Z","depth":0,"parameterNumber":3,"parameterNumberName":"V-component_of_WINDS"},"data":[0,0,0,0,0,0,0,0,0,0,0,0,0,0,0,0,0,0,0,0,0,0,0,0,0,0,0,0,0,0,0,0,0,0,0,0,0,0,0,0,0,0,0,0,0,0,0,0,0,0,0,0,0,0,0,0,0,0,1.6576,1.6575,0,1.6537,1.6536,1.6536,1.6492,1.6491,1.6491,1.649,1.6449,1.6448,1.6448,0,0,0,0,0,0,0,0,0,0,0,0,0,1.661,1.661,1.6576,1.6575,1.6575,1.6537,1.6536,1.6536,1.6492,1.6491,1.649,1.649,1.6449,1.6448,1.6447,0,0,0,0,0,0,0,0,0,0,0,0,0,1.6586,1.661,1.6576,1.6548,1.6545,1.6537,1.6536,1.6536,1.6492,1.6491,1.649,1.6489,1.6449,1.6448,1.6447,1.6462,0,0,1.6445,1.6445,0,0,0,0,0,0,0,0,1.6587,1.6585,1.6553,1.655,1.6547,1.6518,1.6533,1.6511,1.6492,1.6512,1.649,1.6489,1.6472,1.647,1.6464,1.646,1.6458,1.6445,1.6445,1.6444,1.6444,0,0,0,0,0,0,0,1.6589,1.6586,1.656,1.6552,1.6549,1.6537,1.6533,1.6529,1.6498,1.6511,1.6507,1.6503,1.6471,1.6465,1.6463,1.6458,1.6445,1.6444,1.6444,1.6444,1.6463,1.6464,0,0,0,0,0,0,1.6595,1.6588,1.6561,1.6559,1.6565,1.6538,1.6533,1.6528,1.6498,1.6493,1.6504,1.6501,1.6467,1.6464,1.6461,1.6476,1.6444,1.6444,1.6443,1.6462,1.6463,1.6464,0,0,0,0,0,0,1.6596,1.6593,1.6563,1.6572,1.6568,1.6538,1.6534,1.6528,1.6523,1.6493,1.6488,1.6505,1.6466,1.6463,1.6462,1.6474,1.6443,1.6443,1.6461,1.6462,1.6464,1.6506,0,0,0,0,0,0,1.6597,1.6594,1.6599,1.6573,1.6567,1.6565,1.6535,1.6528,1.6522,1.6518,1.6492,1.6487,1.6465,1.6464,1.6462,1.6472,1.6442,1.646,1.6462,1.6463,1.6504,1.6509,1.6513,0,0,0,0,0,1.6599,1.6613,1.66,1.6597,1.6574,1.6566,1.6563,1.6538,1.6523,1.6528,1.6509,1.6488,1.6473,1.6464,1.6461,1.6472,1.6459,1.6461,1.6463,1.6501,1.6508,1.6513,0,0,0,0,0,0,1.6641,1.6609,1.6594,1.66,1.6586,1.6559,1.6564,1.6546,1.6535,1.6531,1.6501,1.6495,1.6498,1.6485,1.6475,1.6484,1.6463,1.6465,1.6493,1.6499,1.6504,1.6506,1.6441,0,0,0,0,0,1.6651,1.6648,1.662,1.6628,1.6621,1.6594,1.659,1.6572,1.6556,1.6549,1.653,1.6515,1.6507,1.6502,1.6493,1.6502,1.6495,1.6508,1.6513,1.6517,1.6519,1.6521,1.6526,1.6471,1.6471,1.6471,0,0,1.6672,1.6654,1.6653,1.6636,1.6623,1.6619,1.6589,1.6587,1.6584,1.6549,1.6547,1.6533,1.6514,1.6518,1.6519,1.6507,1.6532,1.652,1.6523,1.6522,1.6524,1.6529,1.6534,1.6473,1.6473,1.6472,0,0,1.6707,1.6694,1.6699,1.6686,1.6667,1.6649,1.6651,1.6626,1.6615,1.6613,1.6586,1.6582,1.6569,1.6556,1.6548,1.6579,1.6559,1.6577,1.6603,1.6606,1.661,1.6614,1.6624,1.6628,1.6579,1.6579,1.6579,0,1.6735,1.673,1.6704,1.6703,1.6696,1.6664,1.6669,1.6658,1.6637,1.6632,1.6619,1.6602,1.6587,1.6587,1.6595,1.659,1.6589,1.658,1.6612,1.6615,1.6618,1.6628,1.6632,1.6581,1.6581,1.6581,1.6581,0,1.6764,1.6761,1.6767,1.6748,1.6741,1.6743,1.6717,1.6713,1.6696,1.6679,1.6678,1.6658,1.6645,1.6644,1.6627,1.6641,1.6635,1.6618,1.6595,1.6626,1.6634,1.6638,1.6585,1.6584,1.6583,1.6583,0,0,1.6825,1.6792,1.6794,1.6785,1.6762,1.6758,1.6758,1.6746,1.6743,1.6729,1.6728,1.6718,1.6702,1.6693,1.6674,1.6677,1.6702,1.6659,1.6658,1.6667,1.6716,1.6728,1.6733,1.6688,1.6689,1.6689,1.6717,0,1.6856,1.6855,1.6832,1.6837,1.6833,1.6803,1.6803,1.6789,1.6773,1.6767,1.6749,1.6742,1.6722,1.6716,1.6717,1.6698,1.6711,1.6696,1.6686,1.6686,1.6691,1.6737,1.6751,1.6778,1.672,1.6721,1.6721,0,1.6892,1.6881,1.6886,1.6862,1.686,1.686,1.6846,1.6841,1.6824,1.6812,1.6802,1.6781,1.6779,1.6758,1.6755,1.6745,1.674,1.673,1.673,1.6727,1.6705,1.6735,1.6786,1.679,1.6726,1.6726,1.6725,0,1.6935,1.6921,1.6922,1.6915,1.6888,1.6889,1.6877,1.6859,1.6853,1.6841,1.6836,1.6824,1.6817,1.6807,1.6783,1.6771,1.6782,1.676,1.6771,1.6772,1.6774,1.6774,1.6824,1.6772,1.6772,1.6772,1.6772,0,1.6971,1.6975,1.6941,1.6942,1.6945,1.6918,1.6922,1.6908,1.6892,1.6889,1.6862,1.686,1.6828,1.6822,1.6803,1.6802,1.68,1.6789,1.6784,1.6791,1.6793,1.6787,1.6784,1.6773,1.6773,1.6773,1.6773,0,1.7019,1.6997,1.6996,1.697,1.6964,1.6967,1.6945,1.6944,1.6927,1.6923,1.6921,1.6893,1.6885,1.686,1.6845,1.6832,1.6836,1.6827,1.6842,1.6839,1.6851,1.685,1.6898,1.6903,1.685,1.685,1.6851,0,1.7044,1.7046,1.7021,1.7017,1.7007,1.7001,1.6995,1.6968,1.6962,1.6943,1.6944,1.6933,1.6923,1.691,1.6889,1.6877,1.6866,1.6884,1.6864,1.6871,1.6866,1.6865,1.6865,1.6888,1.6889,1.6889,1.689,0,1.7089,1.7078,1.707,1.7058,1.7051,1.704,1.7028,1.7026,1.6997,1.6991,1.6982,1.6975,1.6959,1.6948,1.6933,1.692,1.69,1.6897,1.6898,1.6905,1.6914,1.6908,1.6853,1.6895,1.6895,1.6894,1.6894,1.6894,1.7125,1.7126,1.7108,1.71,1.7088,1.7077,1.7075,1.7058,1.705,1.7036,1.7021,1.7013,1.6995,1.6972,1.6961,1.6954,1.6944,1.6947,1.6947,1.6948,1.6951,1.6916,1.6951,1.6951,1.6951,1.6951,1.6951,0,1.7168,1.7156,1.7149,1.7132,1.7126,1.7108,1.7094,1.7089,1.7083,1.7068,1.7059,1.7048,1.7038,1.7016,1.7003,1.7002,1.6992,1.6999,1.6998,1.6996,1.6962,1.6961,1.7007,1.7007,1.7007,1.7007,1.7007,1.7007,1.719,1.719,1.7177,1.717,1.7157,1.715,1.7143,1.7133,1.7121,1.711,1.7102,1.7088,1.707,1.7055,1.7045,1.7038,1.7034,1.7044,1.7035,1.7004,1.6998,1.6993,1.6992,1.7044,1.7044,1.7069,1.707,1.707]}]]